QPF
0.13 0.13 0.11 0.09 0.02 0.00 0.00 0.00 0.00 0.00 0.00 0.00 0.00 0.00 0.01 0.00 0.00 0.00 0.00 0.00 0.00 0.00 0.00 0.00 0.00 0.00 0.00 0.00 0.00 0.00 0.00 0.00 0.00 0.00 0.00 0.00 0.00 0.00 0.00 0.00 0.00 0.00 0.00 0.00 0.00 0.00 0.00 0.00 0.00 0.00 0.00 0.00 0.00 0.00
0.16 0.17 0.18 0.04 0.01 0.00 0.00 0.00 0.00 0.00 0.00 0.00 0.00 0.00 0.00 0.00 0.00 0.00 0.00 0.00 0.00 0.00 0.00 0.00 0.00 0.00 0.00 0.00 0.00 0.00 0.00 0.00 0.00 0.00 0.00 0.00 0.00 0.00 0.00 0.00 0.00 0.00 0.00 0.00 0.00 0.00 0.00 0.00 0.00 0.00 0.00 0.00 0.00 0.00
0.15 0.12 0.21 0.05 0.00 0.00 0.00 0.00 0.00 0.00 0.00 0.00 0.01 0.00 0.00 0.00 0.00 0.00 0.00 0.00 0.00 0.00 0.00 0.00 0.00 0.00 0.00 0.00 0.00 0.00 0.00 0.00 0.00 0.00 0.00 0.00 0.00 0.00 0.00 0.00 0.00 0.00 0.00 0.00 0.00 0.00 0.00 0.00 0.00 0.00 0.00 0.00 0.00 0.00
0.12 0.12 0.21 0.07 0.00 0.00 0.00 0.00 0.00 0.00 0.01 0.01 0.01 0.00 0.00 0.00 0.00 0.00 0.00 0.00 0.00 0.00 0.00 0.00 0.00 0.00 0.00 0.00 0.00 0.00 0.00 0.00 0.00 0.00 0.00 0.00 0.00 0.00 0.00 0.00 0.00 0.00 0.00 0.00 0.00 0.00 0.00 0.00 0.00 0.00 0.00 0.00 0.00 0.00
0.09 0.12 0.18 0.05 0.00 0.00 0.00 0.00 0.01 0.00 0.02 0.01 0.00 0.00 0.00 0.00 0.00 0.00 0.00 0.00 0.00 0.00 0.00 0.00 0.00 0.00 0.00 0.00 0.00 0.00 0.00 0.00 0.00 0.00 0.00 0.00 0.00 0.00 0.00 0.00 0.00 0.00 0.00 0.00 0.00 0.00 0.00 0.00 0.00 0.00 0.00 0.00 0.00 0.00
0.11 0.13 0.16 0.03 0.00 0.00 0.01 0.02 0.00 0.00 0.04 0.01 0.00 0.00 0.00 0.00 0.00 0.00 0.00 0.00 0.00 0.00 0.00 0.00 0.00 0.00 0.00 0.00 0.00 0.00 0.00 0.00 0.00 0.00 0.00 0.00 0.00 0.00 0.00 0.00 0.00 0.00 0.00 0.00 0.00 0.00 0.00 0.00 0.00 0.00 0.00 0.00 0.00 0.00
0.08 0.13 0.11 0.02 0.00 0.00 0.02 0.02 0.01 0.01 0.07 0.00 0.00 0.00 0.00 0.00 0.00 0.00 0.00 0.00 0.00 0.00 0.00 0.00 0.00 0.00 0.00 0.00 0.00 0.00 0.00 0.00 0.00 0.00 0.00 0.00 0.00 0.00 0.00 0.00 0.00 0.00 0.00 0.00 0.00 0.00 0.00 0.00 0.00 0.00 0.00 0.00 0.00 0.00
0.05 0.10 0.06 0.00 0.00 0.00 0.03 0.02 0.01 0.02 0.05 0.01 0.01 0.01 0.01 0.00 0.00 0.00 0.00 0.00 0.00 0.00 0.00 0.00 0.00 0.00 0.00 0.00 0.00 0.00 0.00 0.00 0.00 0.00 0.00 0.00 0.00 0.00 0.00 0.00 0.00 0.00 0.00 0.00 0.00 0.00 0.00 0.00 0.00 0.00 0.00 0.00 0.00 0.00
0.08 0.09 0.04 0.00 0.00 0.01 0.04 0.02 0.01 0.01 0.03 0.04 0.02 0.01 0.00 0.00 0.00 0.00 0.00 0.00 0.00 0.00 0.00 0.00 0.00 0.00 0.00 0.00 0.00 0.00 0.00 0.00 0.00 0.00 0.00 0.00 0.00 0.00 0.00 0.00 0.00 0.00 0.00 0.00 0.00 0.00 0.00 0.00 0.00 0.00 0.00 0.00 0.00 0.00
0.10 0.06 0.01 0.00 0.01 0.03 0.03 0.02 0.01 0.03 0.06 0.06 0.04 0.01 0.00 0.00 0.00 0.00 0.00 0.00 0.00 0.00 0.00 0.00 0.00 0.00 0.00 0.00 0.00 0.00 0.00 0.00 0.00 0.00 0.00 0.00 0.00 0.00 0.00 0.00 0.00 0.00 0.00 0.00 0.00 0.00 0.00 0.00 0.00 0.00 0.00 0.00 0.00 0.00
0.10 0.04 0.00 0.00 0.05 0.07 0.03 0.01 0.04 0.07 0.15 0.06 0.04 0.00 0.00 0.00 0.00 0.00 0.00 0.00 0.00 0.00 0.00 0.00 0.00 0.00 0.00 0.00 0.00 0.00 0.00 0.00 0.00 0.00 0.00 0.00 0.00 0.00 0.00 0.00 0.00 0.00 0.00 0.00 0.00 0.00 0.00 0.00 0.00 0.00 0.00 0.00 0.00 0.00
0.09 0.02 0.00 0.01 0.10 0.05 0.02 0.04 0.09 0.08 0.09 0.02 0.00 0.00 0.00 0.00 0.00 0.00 0.00 0.00 0.00 0.00 0.00 0.00 0.00 0.00 0.00 0.00 0.00 0.00 0.00 0.00 0.00 0.00 0.00 0.00 0.00 0.00 0.00 0.00 0.00 0.00 0.00 0.00 0.00 0.00 0.00 0.00 0.00 0.00 0.00 0.00 0.00 0.00
0.06 0.00 0.00 0.04 0.09 0.02 0.02 0.14 0.07 0.04 0.03 0.01 0.00 0.00 0.00 0.00 0.00 0.00 0.00 0.00 0.00 0.00 0.00 0.00 0.00 0.00 0.00 0.00 0.00 0.00 0.00 0.00 0.00 0.00 0.00 0.00 0.00 0.00 0.00 0.00 0.00 0.00 0.00 0.00 0.00 0.00 0.00 0.00 0.00 0.00 0.00 0.00 0.00 0.00
0.04 0.00 0.00 0.06 0.05 0.02 0.08 0.14 0.06 0.08 0.04 0.02 0.00 0.00 0.00 0.00 0.00 0.00 0.00 0.00 0.00 0.00 0.00 0.00 0.00 0.00 0.00 0.00 0.00 0.00 0.00 0.00 0.00 0.00 0.00 0.00 0.00 0.00 0.00 0.00 0.00 0.00 0.00 0.00 0.00 0.00 0.00 0.00 0.00 0.00 0.00 0.00 0.00 0.00
0.01 0.00 0.01 0.05 0.03 0.04 0.08 0.10 0.03 0.05 0.01 0.00 0.00 0.00 0.00 0.00 0.00 0.00 0.00 0.00 0.00 0.00 0.00 0.00 0.00 0.00 0.00 0.00 0.00 0.00 0.00 0.00 0.00 0.00 0.00 0.00 0.00 0.00 0.00 0.00 0.00 0.00 0.00 0.00 0.00 0.00 0.00 0.00 0.00 0.00 0.00 0.00 0.00 0.00
0.00 0.00 0.00 0.01 0.03 0.12 0.10 0.02 0.02 0.02 0.00 0.00 0.00 0.00 0.00 0.00 0.00 0.00 0.00 0.00 0.00 0.00 0.00 0.00 0.00 0.00 0.00 0.00 0.00 0.00 0.00 0.00 0.00 0.00 0.00 0.00 0.00 0.00 0.00 0.00 0.00 0.00 0.00 0.00 0.00 0.00 0.00 0.00 0.00 0.00 0.00 0.00 0.00 0.00
0.00 0.00 0.01 0.01 0.07 0.30 0.11 0.03 0.03 0.01 0.00 0.00 0.00 0.00 0.00 0.00 0.00 0.00 0.00 0.00 0.00 0.00 0.00 0.00 0.00 0.00 0.00 0.00 0.00 0.00 0.00 0.00 0.00 0.00 0.00 0.00 0.00 0.00 0.00 0.00 0.00 0.00 0.00 0.00 0.00 0.00 0.00 0.00 0.00 0.00 0.00 0.00 0.00 0.00
0.00 0.00 0.00 0.01 0.21 0.36 0.10 0.03 0.03 0.01 0.00 0.00 0.00 0.00 0.00 0.00 0.00 0.00 0.00 0.00 0.00 0.00 0.00 0.00 0.00 0.00 0.00 0.00 0.00 0.00 0.00 0.00 0.00 0.00 0.00 0.00 0.00 0.00 0.00 0.00 0.00 0.00 0.00 0.00 0.00 0.00 0.00 0.00 0.00 0.00 0.00 0.00 0.00 0.00
0.00 0.00 0.00 0.01 0.14 0.17 0.17 0.08 0.01 0.00 0.01 0.00 0.00 0.01 0.01 0.01 0.00 0.00 0.00 0.00 0.00 0.00 0.00 0.00 0.00 0.00 0.00 0.00 0.00 0.00 0.00 0.00 0.00 0.00 0.00 0.00 0.00 0.00 0.00 0.00 0.00 0.00 0.00 0.00 0.00 0.00 0.00 0.00 0.00 0.00 0.00 0.00 0.00 0.00
0.00 0.00 0.01 0.02 0.08 0.09 0.09 0.04 0.01 0.01 0.00 0.00 0.00 0.02 0.01 0.01 0.00 0.00 0.00 0.00 0.00 0.00 0.00 0.00 0.00 0.00 0.00 0.00 0.00 0.00 0.00 0.00 0.00 0.00 0.00 0.00 0.00 0.00 0.00 0.00 0.00 0.00 0.00 0.00 0.00 0.00 0.00 0.00 0.00 0.00 0.00 0.00 0.00 0.00
0.00 0.01 0.00 0.05 0.11 0.04 0.04 0.02 0.00 0.00 0.00 0.00 0.00 0.00 0.00 0.00 0.00 0.00 0.00 0.00 0.00 0.00 0.00 0.00 0.00 0.00 0.00 0.00 0.00 0.00 0.00 0.00 0.00 0.00 0.00 0.00 0.00 0.00 0.00 0.00 0.00 0.00 0.00 0.00 0.00 0.00 0.00 0.00 0.00 0.00 0.00 0.00 0.00 0.00
0.00 0.00 0.01 0.03 0.03 0.01 0.00 0.00 0.00 0.00 0.00 0.00 0.00 0.00 0.00 0.00 0.00 0.00 0.00 0.00 0.00 0.00 0.00 0.00 0.00 0.00 0.00 0.00 0.00 0.00 0.00 0.00 0.00 0.00 0.00 0.00 0.00 0.00 0.00 0.00 0.00 0.00 0.00 0.00 0.00 0.00 0.00 0.00 0.00 0.00 0.00 0.00 0.00 0.00
0.00 0.00 0.00 0.01 0.04 0.01 0.02 0.00 0.00 0.00 0.00 0.00 0.00 0.00 0.00 0.00 0.00 0.00 0.00 0.00 0.00 0.00 0.00 0.00 0.00 0.00 0.00 0.00 0.00 0.00 0.00 0.00 0.00 0.00 0.00 0.00 0.00 0.00 0.00 0.00 0.00 0.00 0.00 0.00 0.00 0.00 0.00 0.00 0.00 0.00 0.00 0.00 0.00 0.00
0.00 0.00 0.00 0.02 0.05 0.03 0.01 0.00 0.00 0.00 0.00 0.00 0.00 0.00 0.00 0.00 0.00 0.00 0.00 0.00 0.00 0.00 0.00 0.00 0.00 0.00 0.00 0.00 0.00 0.00 0.00 0.00 0.00 0.00 0.00 0.00 0.00 0.00 0.00 0.00 0.00 0.00 0.00 0.00 0.00 0.00 0.00 0.00 0.00 0.00 0.00 0.00 0.00 0.00
0.00 0.00 0.00 0.02 0.03 0.02 0.01 0.00 0.00 0.00 0.00 0.00 0.00 0.00 0.00 0.00 0.00 0.00 0.00 0.00 0.00 0.00 0.00 0.00 0.00 0.00 0.00 0.00 0.00 0.00 0.00 0.00 0.00 0.00 0.00 0.00 0.00 0.00 0.00 0.00 0.00 0.00 0.00 0.00 0.00 0.00 0.00 0.00 0.00 0.00 0.00 0.00 0.00 0.00
0.00 0.00 0.00 0.00 0.00 0.00 0.00 0.00 0.00 0.00 0.00 0.00 0.00 0.00 0.00 0.00 0.00 0.00 0.00 0.00 0.00 0.00 0.00 0.00 0.00 0.00 0.00 0.00 0.00 0.01 0.00 0.00 0.00 0.00 0.00 0.00 0.00 0.00 0.00 0.00 0.00 0.00 0.00 0.00 0.00 0.00 0.00 0.00 0.00 0.00 0.00 0.00 0.00 0.00
0.03 0.00 0.00 0.00 0.00 0.00 0.00 0.00 0.00 0.00 0.00 0.00 0.00 0.00 0.00 0.00 0.00 0.00 0.00 0.00 0.00 0.00 0.00 0.00 0.00 0.00 0.00 0.00 0.00 0.01 0.00 0.00 0.00 0.01 0.00 0.00 0.00 0.00 0.00 0.00 0.00 0.00 0.00 0.00 0.00 0.00 0.00 0.00 0.00 0.00 0.00 0.00 0.00 0.00
0.01 0.00 0.00 0.00 0.00 0.00 0.00 0.00 0.00 0.00 0.00 0.00 0.00 0.00 0.00 0.00 0.00 0.00 0.00 0.00 0.00 0.00 0.00 0.00 0.00 0.00 0.01 0.01 0.00 0.00 0.00 0.00 0.00 0.00 0.00 0.00 0.00 0.00 0.00 0.00 0.00 0.00 0.00 0.00 0.00 0.00 0.00 0.00 0.00 0.00 0.00 0.00 0.00 0.00
0.00 0.00 0.00 0.00 0.00 0.00 0.00 0.00 0.00 0.00 0.00 0.00 0.00 0.00 0.00 0.00 0.00 0.00 0.00 0.00 0.00 0.00 0.00 0.00 0.00 0.00 0.00 0.00 0.00 0.00 0.00 0.00 0.00 0.00 0.00 0.00 0.00 0.00 0.00 0.00 0.00 0.00 0.00 0.00 0.00 0.00 0.00 0.00 0.00 0.00 0.00 0.00 0.00 0.00
0.00 0.00 0.00 0.00 0.00 0.00 0.00 0.00 0.00 0.00 0.00 0.00 0.00 0.00 0.00 0.00 0.00 0.00 0.00 0.00 0.00 0.00 0.00 0.00 0.00 0.00 0.00 0.00 0.01 0.00 0.00 0.00 0.00 0.00 0.00 0.00 0.00 0.00 0.00 0.00 0.00 0.00 0.00 0.00 0.00 0.00 0.00 0.00 0.00 0.00 0.00 0.00 0.00 0.00
0.00 0.00 0.00 0.00 0.00 0.00 0.00 0.00 0.00 0.00 0.00 0.00 0.00 0.00 0.00 0.00 0.00 0.00 0.00 0.00 0.00 0.00 0.00 0.00 0.01 0.01 0.00 0.00 0.00 0.00 0.00 0.00 0.00 0.00 0.00 0.00 0.00 0.00 0.00 0.00 0.00 0.00 0.00 0.00 0.00 0.00 0.00 0.00 0.00 0.00 0.00 0.00 0.00 0.00
0.00 0.00 0.00 0.00 0.00 0.00 0.00 0.00 0.00 0.00 0.00 0.00 0.00 0.00 0.00 0.00 0.00 0.00 0.00 0.00 0.00 0.00 0.00 0.00 0.00 0.00 0.00 0.00 0.00 0.00 0.00 0.00 0.00 0.00 0.00 0.00 0.00 0.00 0.00 0.00 0.00 0.00 0.00 0.00 0.00 0.00 0.00 0.00 0.00 0.00 0.00 0.00 0.00 0.00
0.00 0.00 0.00 0.00 0.00 0.00 0.00 0.00 0.00 0.00 0.00 0.00 0.00 0.00 0.00 0.00 0.00 0.00 0.00 0.00 0.00 0.00 0.00 0.00 0.00 0.00 0.00 0.00 0.00 0.00 0.00 0.00 0.00 0.00 0.00 0.00 0.00 0.00 0.00 0.00 0.00 0.00 0.00 0.00 0.00 0.00 0.00 0.00 0.00 0.00 0.00 0.00 0.00 0.00
MSLP
1005.11 1005.68 1006.02 1006.56 1006.90 1008.04 1009.16 1010.12 1010.98 1011.69 1012.45 1013.05 1013.54 1014.11 1014.66 1015.19 1015.62 1015.99 1015.44 1014.85 1014.99 1015.88 1015.78 1015.05 1014.39 1014.37 1014.49 1014.77 1015.38 1015.84 1016.03 1016.50 1017.25 1018.15 1018.60 1018.56 1018.04 1017.01 1016.34 1015.66 1015.51 1016.36 1017.44 1018.38 1019.15 1019.43 1018.89 1017.84 1017.55 1018.00 1019.09 1019.49 1020.04 1020.67
1004.40 1005.20 1005.07 1005.97 1006.67 1007.76 1008.75 1009.74 1010.73 1011.39 1012.12 1012.71 1013.33 1013.90 1014.56 1015.07 1015.30 1015.59 1015.55 1014.61 1014.45 1015.63 1016.23 1015.55 1015.09 1014.91 1014.87 1014.99 1015.23 1015.96 1016.79 1017.18 1017.73 1018.52 1018.97 1018.91 1018.70 1017.98 1017.36 1016.91 1016.13 1016.80 1016.95 1017.65 1018.58 1018.98 1018.58 1018.32 1018.15 1018.44 1018.83 1019.44 1020.17 1020.92
1004.27 1003.89 1004.47 1005.44 1006.55 1007.49 1008.54 1009.57 1010.44 1011.07 1011.86 1012.49 1013.13 1013.82 1014.41 1014.86 1015.08 1015.21 1015.27 1014.87 1014.83 1016.11 1016.58 1016.18 1015.88 1015.54 1014.95 1015.02 1014.97 1015.88 1016.99 1017.20 1017.75 1018.15 1019.03 1019.63 1019.56 1019.03 1018.65 1018.07 1017.35 1016.96 1016.83 1017.64 1018.40 1019.30 1019.07 1019.03 1018.91 1018.84 1019.12 1019.56 1020.18 1020.85
1003.49 1003.77 1004.59 1005.01 1006.15 1007.39 1008.41 1009.42 1010.20 1010.86 1011.57 1012.33 1012.91 1013.62 1014.21 1014.62 1014.81 1014.88 1015.03 1014.99 1015.18 1016.47 1017.24 1017.18 1016.14 1016.08 1015.75 1015.43 1015.38 1015.61 1016.45 1017.16 1017.93 1018.84 1019.96 1020.32 1020.17 1019.34 1019.20 1018.60 1018.11 1017.65 1017.37 1017.90 1019.27 1019.72 1019.90 1019.69 1019.56 1019.60 1019.89 1020.22 1020.93 1021.71
1003.13 1003.74 1004.47 1005.08 1006.26 1007.35 1008.31 1009.20 1009.99 1010.63 1011.47 1012.14 1012.85 1013.51 1014.05 1014.47 1014.62 1014.62 1014.72 1015.08 1015.05 1015.80 1017.39 1017.64 1017.01 1016.76 1016.34 1016.26 1016.43 1016.62 1017.17 1017.93 1018.98 1020.07 1020.96 1020.81 1020.09 1019.77 1019.58 1019.33 1018.87 1017.87 1017.86 1018.39 1018.77 1018.86 1019.60 1020.06 1019.93 1020.11 1020.56 1021.11 1021.58 1022.13
1003.01 1003.67 1004.31 1005.41 1006.39 1007.38 1008.23 1009.16 1009.85 1010.64 1011.44 1012.23 1012.86 1013.43 1013.92 1014.38 1014.53 1014.65 1015.72 1015.45 1015.33 1015.37 1017.02 1018.25 1017.93 1017.39 1017.11 1017.22 1017.49 1017.83 1018.22 1018.90 1019.55 1020.48 1020.90 1020.51 1019.74 1019.76 1020.15 1019.88 1018.37 1017.99 1017.94 1017.87 1018.40 1018.96 1019.50 1020.10 1020.43 1020.75 1021.29 1021.84 1022.27 1022.76
1003.46 1003.81 1004.39 1005.42 1006.42 1007.34 1008.30 1009.04 1009.86 1010.58 1011.49 1012.24 1012.95 1013.49 1013.99 1014.38 1014.70 1015.45 1016.11 1016.03 1015.59 1015.62 1017.27 1018.93 1018.71 1017.97 1017.65 1018.02 1018.60 1019.07 1019.28 1020.06 1020.44 1021.03 1021.09 1020.89 1020.35 1020.03 1020.23 1020.03 1018.36 1017.73 1017.81 1018.11 1018.48 1019.34 1020.65 1020.89 1021.43 1021.71 1021.95 1022.62 1023.13 1023.76
1003.67 1004.11 1004.68 1005.63 1006.63 1007.50 1008.44 1009.27 1010.00 1010.87 1011.35 1012.31 1013.09 1013.59 1014.09 1014.32 1015.22 1015.86 1016.00 1015.61 1015.40 1016.56 1017.78 1019.35 1019.60 1018.86 1018.29 1019.06 1019.84 1020.00 1020.72 1021.13 1021.34 1021.59 1021.33 1021.09 1020.62 1020.38 1020.34 1019.06 1018.36 1017.99 1018.23 1019.06 1019.59 1019.69 1020.32 1021.47 1021.98 1022.56 1022.93 1023.45 1024.38 1025.16
1004.06 1004.24 1005.11 1006.00 1006.94 1007.75 1008.66 1009.51 1010.26 1010.98 1011.75 1012.62 1013.23 1013.61 1014.03 1014.82 1015.70 1016.19 1016.01 1015.87 1016.05 1017.34 1018.83 1019.58 1019.80 1019.61 1018.91 1019.51 1020.24 1020.67 1021.14 1022.07 1022.09 1021.89 1021.61 1021.36 1021.15 1020.67 1019.57 1019.14 1018.51 1018.50 1018.60 1019.69 1020.57 1020.89 1021.58 1022.15 1022.86 1023.39 1023.85 1024.67 1025.41 1026.48
1004.07 1004.68 1005.47 1006.39 1007.26 1008.16 1008.90 1009.69 1010.52 1011.45 1012.17 1012.86 1013.28 1014.31 1015.68 1015.69 1015.71 1015.96 1016.45 1017.13 1017.69 1018.39 1018.76 1019.45 1019.34 1019.58 1019.43 1020.00 1020.98 1021.56 1021.72 1022.41 1022.62 1021.96 1021.38 1021.32 1021.07 1020.19 1019.74 1019.29 1018.93 1019.06 1019.33 1020.09 1021.24 1022.33 1022.79 1023.24 1023.63 1024.20 1024.77 1025.48 1026.27 1027.17
1004.29 1005.02 1005.99 1006.79 1007.56 1008.44 1009.14 1010.01 1010.88 1011.79 1012.54 1013.08 1014.20 1015.22 1015.95 1015.89 1016.30 1017.79 1018.82 1019.38 1019.90 1019.97 1019.40 1019.16 1019.08 1019.33 1019.49 1020.12 1021.14 1021.51 1021.98 1022.43 1022.70 1022.02 1021.79 1021.68 1021.42 1020.91 1020.65 1020.37 1020.15 1020.17 1020.64 1021.08 1021.12 1021.89 1022.70 1023.25 1024.15 1024.95 1025.82 1026.54 1027.34 1028.19
1004.82 1005.46 1006.33 1007.18 1007.91 1008.79 1009.46 1010.32 1011.08 1011.71 1012.08 1012.55 1013.46 1015.00 1016.11 1016.86 1018.36 1019.27 1019.80 1020.00 1019.96 1019.34 1019.12 1018.86 1018.82 1018.93 1019.46 1019.78 1020.95 1021.97 1022.28 1022.57 1022.40 1022.00 1022.08 1021.95 1021.57 1021.53 1021.52 1021.86 1021.96 1022.04 1022.14 1022.50 1022.74 1023.33 1023.88 1024.50 1025.11 1025.80 1026.69 1027.58 1028.38 1029.11
1005.52 1006.12 1006.89 1007.53 1008.42 1009.17 1009.97 1010.73 1010.98 1011.04 1011.89 1012.70 1014.05 1015.73 1016.66 1018.13 1018.68 1019.09 1019.27 1019.24 1019.16 1018.56 1018.44 1018.44 1018.90 1019.09 1019.57 1020.36 1021.58 1022.31 1022.79 1022.97 1022.35 1022.57 1022.11 1021.88 1021.76 1022.18 1022.51 1022.96 1023.44 1023.80 1023.96 1024.18 1024.72 1025.04 1025.45 1026.09 1026.62 1027.04 1027.81 1028.61 1029.23 1029.98
1006.19 1006.97 1007.62 1007.97 1008.90 1009.66 1010.14 1010.71 1011.24 1012.07 1012.80 1014.32 1015.26 1016.33 1016.84 1017.70 1017.80 1017.48 1017.45 1017.36 1017.23 1017.34 1017.69 1018.08 1019.00 1019.33 1020.11 1020.94 1021.63 1022.23 1022.46 1022.42 1022.80 1022.93 1022.42 1022.12 1022.27 1022.83 1023.30 1023.89 1024.26 1025.07 1025.44 1025.63 1026.03 1026.39 1026.75 1027.18 1027.86 1028.45 1028.96 1029.42 1029.92 1030.65
1007.03 1007.92 1008.50 1009.01 1009.72 1010.42 1010.84 1011.16 1011.98 1011.99 1012.38 1013.39 1014.13 1015.74 1016.44 1016.35 1016.57 1016.52 1016.51 1016.62 1016.60 1016.69 1017.28 1018.23 1019.12 1019.67 1020.63 1021.20 1021.49 1021.79 1022.36 1022.39 1022.25 1022.09 1022.05 1022.19 1022.63 1023.27 1023.89 1024.51 1025.10 1025.80 1026.27 1026.57 1026.92 1027.25 1027.77 1028.22 1028.75 1029.32 1029.77 1030.16 1030.62 1031.10
1007.88 1008.69 1009.35 1009.64 1010.48 1011.04 1011.65 1011.70 1012.31 1012.59 1013.03 1013.73 1014.55 1015.32 1015.80 1016.33 1016.74 1016.55 1016.44 1016.55 1016.19 1016.63 1017.20 1017.98 1019.20 1020.05 1020.52 1020.77 1021.28 1021.39 1021.85 1021.76 1021.64 1021.72 1021.86 1022.41 1022.99 1023.53 1024.19 1024.79 1025.42 1026.04 1026.50 1026.93 1027.39 1027.85 1028.39 1028.92 1029.38 1029.82 1030.26 1030.69 1031.13 1031.48
1008.16 1009.29 1009.96 1010.77 1011.43 1011.74 1012.14 1013.07 1013.49 1014.30 1014.58 1014.60 1014.94 1014.93 1015.49 1015.99 1016.26 1016.25 1015.98 1016.08 1015.83 1016.65 1017.68 1018.12 1018.99 1019.37 1019.95 1020.60 1021.13 1021.00 1021.23 1021.14 1021.41 1021.85 1022.14 1022.53 1023.12 1023.71 1024.29 1024.94 1025.46 1026.03 1026.54 1027.07 1027.49 1028.09 1028.71 1029.31 1029.78 1030.15 1030.55 1031.15 1031.46 1031.80
1009.49 1010.25 1010.83 1011.36 1012.18 1012.93 1014.12 1014.62 1014.94 1015.32 1015.56 1015.24 1015.49 1015.88 1016.12 1016.37 1016.30 1016.26 1016.10 1015.96 1016.40 1016.89 1017.49 1017.66 1017.98 1018.93 1019.51 1020.20 1020.76 1020.87 1021.28 1021.58 1021.96 1022.46 1022.74 1023.07 1023.46 1023.92 1024.36 1024.96 1025.56 1026.04 1026.63 1027.23 1027.72 1028.33 1028.94 1029.43 1029.84 1030.33 1030.80 1031.35 1031.76 1032.11
1010.36 1011.15 1011.84 1012.39 1013.11 1014.23 1015.25 1015.73 1015.79 1016.03 1016.17 1016.11 1016.15 1016.35 1016.76 1016.94 1016.90 1016.68 1016.46 1016.36 1016.42 1016.89 1017.40 1018.04 1018.80 1019.65 1019.92 1019.95 1020.39 1020.88 1021.35 1021.88 1022.64 1023.17 1023.41 1023.51 1023.75 1024.15 1024.60 1025.12 1025.61 1026.13 1026.73 1027.32 1027.94 1028.50 1028.97 1029.35 1029.80 1030.37 1030.96 1031.50 1031.92 1032.21
1011.28 1011.90 1012.56 1012.83 1013.88 1014.87 1015.97 1016.17 1016.15 1016.27 1016.45 1016.73 1016.95 1017.60 1017.98 1018.01 1017.88 1017.67 1017.31 1017.29 1017.46 1017.87 1018.69 1019.47 1020.00 1020.00 1020.08 1020.06 1020.14 1020.72 1021.43 1022.10 1022.77 1023.67 1024.24 1024.30 1024.24 1024.56 1024.97 1025.34 1025.81 1026.19 1026.89 1027.39 1027.95 1028.47 1029.08 1029.73 1030.13 1030.55 1031.11 1031.50 1031.90 1032.32
1012.24 1013.24 1013.42 1014.05 1014.74 1015.31 1015.90 1016.17 1016.11 1016.21 1016.52 1017.21 1017.69 1018.01 1018.53 1018.58 1018.81 1018.85 1018.97 1018.64 1018.66 1019.39 1019.98 1020.21 1020.33 1020.37 1020.28 1020.22 1020.31 1020.87 1021.63 1022.10 1022.64 1023.06 1023.65 1024.46 1024.49 1024.71 1025.19 1025.54 1026.00 1026.76 1027.25 1027.70 1028.23 1028.95 1029.27 1029.82 1030.20 1030.68 1031.17 1031.65 1031.92 1032.30
1012.99 1013.49 1014.84 1015.51 1015.54 1015.46 1015.77 1016.11 1016.18 1016.49 1017.07 1017.70 1018.07 1018.66 1019.49 1019.71 1019.64 1019.54 1019.47 1019.66 1020.12 1020.19 1020.40 1020.54 1020.65 1020.96 1020.99 1021.00 1021.05 1021.23 1021.58 1022.21 1022.76 1023.30 1023.74 1024.12 1024.41 1024.86 1025.38 1025.86 1026.45 1027.03 1027.52 1028.05 1028.54 1029.05 1029.61 1030.00 1030.37 1030.89 1031.39 1031.82 1032.08 1032.39
1013.26 1014.07 1015.43 1016.10 1016.11 1016.09 1016.83 1016.23 1016.59 1017.10 1017.72 1018.22 1018.58 1019.27 1019.60 1019.78 1019.80 1019.66 1020.12 1020.34 1020.26 1020.25 1020.26 1020.50 1020.66 1020.85 1020.99 1021.02 1021.14 1021.49 1021.84 1022.31 1022.92 1023.33 1023.73 1024.15 1024.45 1024.95 1025.48 1026.01 1026.46 1027.04 1027.71 1028.35 1028.65 1029.32 1029.89 1030.32 1030.72 1031.16 1031.49 1031.90 1032.22 1032.51
1013.81 1015.08 1016.24 1016.76 1016.96 1017.41 1017.08 1016.94 1016.77 1017.35 1018.13 1018.50 1018.93 1019.40 1019.73 1020.00 1020.12 1020.51 1020.79 1020.60 1019.86 1020.04 1020.30 1020.44 1020.65 1021.01 1021.25 1021.33 1021.48 1021.61 1021.94 1022.19 1022.79 1023.28 1023.60 1024.08 1024.79 1025.33 1025.61 1026.18 1026.68 1027.22 1027.67 1028.35 1028.90 1029.53 1030.05 1030.54 1030.91 1031.36 1031.81 1032.15 1032.48 1032.68
1015.04 1016.59 1016.72 1017.21 1017.43 1017.88 1017.95 1017.48 1017.55 1017.90 1018.33 1018.54 1019.10 1019.69 1020.00 1020.20 1020.55 1020.72 1020.52 1019.55 1019.64 1019.88 1020.09 1020.36 1020.48 1020.55 1020.80 1021.11 1021.43 1021.73 1021.90 1022.06 1022.58 1023.23 1023.76 1024.03 1024.90 1025.60 1026.20 1026.64 1027.08 1027.49 1027.80 1028.47 1029.31 1029.75 1030.24 1030.69 1031.12 1031.54 1031.86 1032.17 1032.50 1032.85
1016.07 1016.86 1016.99 1016.89 1017.36 1017.47 1017.64 1018.19 1018.23 1018.43 1018.66 1019.10 1019.41 1019.64 1019.80 1020.22 1020.55 1020.15 1019.18 1018.46 1018.94 1019.14 1019.34 1019.68 1019.83 1020.19 1020.52 1020.74 1021.10 1021.48 1021.80 1022.15 1022.64 1023.27 1023.96 1024.27 1024.83 1025.43 1026.14 1026.76 1027.42 1028.15 1028.07 1028.29 1028.99 1029.64 1030.35 1030.82 1031.17 1031.47 1031.82 1032.12 1032.43 1032.76
1016.80 1017.00 1016.92 1016.70 1016.71 1016.99 1017.54 1017.75 1018.01 1018.45 1018.82 1019.12 1019.38 1019.81 1020.01 1020.18 1019.83 1018.76 1018.18 1018.22 1018.46 1018.54 1018.76 1019.16 1019.41 1019.70 1020.10 1020.60 1020.98 1021.37 1021.79 1022.29 1022.80 1023.40 1024.08 1024.64 1025.09 1025.53 1025.87 1026.37 1027.12 1027.73 1028.06 1028.33 1028.84 1029.58 1030.19 1030.65 1031.10 1031.48 1031.87 1032.20 1032.47 1032.78
1017.19 1017.15 1017.42 1017.52 1017.56 1017.71 1018.24 1018.35 1018.53 1018.46 1018.43 1018.32 1018.94 1019.67 1019.51 1019.47 1018.80 1018.47 1018.29 1018.23 1018.22 1018.46 1018.79 1019.11 1019.38 1019.70 1020.08 1020.57 1021.03 1021.56 1022.12 1022.83 1023.50 1024.10 1024.79 1025.47 1025.81 1026.12 1026.37 1026.73 1027.19 1027.81 1028.17 1028.51 1029.06 1029.64 1030.24 1030.77 1031.17 1031.53 1031.91 1032.31 1032.66 1032.94
1017.59 1017.51 1017.77 1018.59 1018.68 1018.56 1018.55 1018.57 1018.45 1018.37 1018.34 1018.34 1018.90 1019.21 1019.10 1019.00 1019.00 1018.84 1018.70 1018.58 1018.54 1018.64 1018.90 1019.25 1019.70 1020.01 1020.57 1021.07 1021.46 1022.02 1022.53 1023.02 1023.52 1024.29 1025.06 1025.96 1026.60 1027.10 1026.95 1027.21 1027.73 1028.06 1028.42 1028.94 1029.41 1029.79 1030.30 1030.65 1031.18 1031.68 1032.08 1032.52 1032.84 1033.14
1017.82 1017.61 1018.54 1019.12 1019.59 1019.46 1019.18 1018.82 1018.85 1018.68 1018.52 1018.71 1019.02 1019.48 1019.57 1019.40 1019.22 1019.09 1018.91 1018.74 1018.79 1018.82 1018.97 1019.35 1019.85 1020.22 1020.84 1021.32 1021.99 1022.73 1023.16 1023.08 1023.23 1023.73 1024.81 1025.67 1026.27 1026.74 1027.07 1027.35 1027.84 1028.30 1028.72 1029.25 1029.87 1030.39 1030.72 1031.27 1031.83 1032.15 1032.53 1032.91 1033.24 1033.61
1017.78 1017.95 1018.79 1019.61 1020.04 1019.85 1019.36 1019.12 1018.89 1018.95 1019.16 1019.39 1019.69 1020.12 1020.18 1019.80 1019.24 1018.93 1018.75 1018.59 1018.78 1019.00 1019.26 1019.73 1020.15 1020.60 1021.04 1021.52 1021.97 1022.63 1023.48 1023.71 1023.69 1023.99 1024.42 1025.33 1026.10 1026.76 1027.20 1027.55 1028.04 1028.36 1028.88 1029.51 1030.04 1030.52 1031.04 1031.57 1032.03 1032.49 1032.81 1033.23 1033.70 1034.12
1018.51 1018.73 1019.30 1020.38 1020.60 1020.04 1019.79 1019.87 1019.80 1019.84 1020.01 1020.15 1020.41 1020.27 1020.46 1020.16 1019.77 1019.07 1018.59 1018.53 1018.72 1018.90 1019.18 1019.61 1020.13 1020.75 1021.11 1021.52 1021.87 1022.17 1022.54 1023.45 1023.95 1024.30 1024.72 1025.44 1026.22 1026.89 1027.41 1027.91 1028.52 1028.88 1029.31 1029.74 1030.21 1030.72 1031.24 1031.74 1032.15 1032.68 1033.12 1033.56 1034.08 1034.58
1019.07 1019.15 1019.55 1020.33 1020.54 1020.63 1020.38 1020.18 1020.15 1020.47 1020.48 1020.69 1020.53 1020.48 1020.45 1020.15 1019.55 1018.44 1018.09 1018.08 1018.13 1018.28 1018.87 1019.43 1019.94 1020.58 1021.05 1021.52 1022.00 1022.44 1022.85 1023.50 1024.08 1024.52 1024.96 1025.52 1026.07 1026.79 1027.52 1028.17 1028.62 1029.07 1029.61 1030.06 1030.57 1030.98 1031.42 1031.80 1032.41 1032.92 1033.47 1034.02 1034.60 1035.34
Thickness
5336 5359 5380 5397 5416 5428 5439 5451 5463 5474 5483 5492 5501 5508 5515 5519 5526 5532 5543 5556 5563 5559 5570 5584 5594 5597 5603 5603 5602 5610 5607 5607 5602 5601 5599 5596 5603 5613 5619 5627 5623 5613 5595 5590 5584 5576 5577 5608 5605 5588 5581 5578 5570 5561
5342 5357 5378 5396 5412 5423 5435 5446 5457 5469 5478 5488 5496 5503 5509 5515 5523 5529 5537 5552 5561 5558 5563 5575 5584 5590 5595 5599 5600 5600 5599 5602 5600 5595 5598 5600 5602 5602 5608 5603 5620 5601 5606 5595 5592 5586 5597 5595 5596 5590 5584 5576 5568 5555
5342 5364 5381 5395 5406 5419 5430 5441 5452 5465 5474 5483 5490 5497 5504 5511 5519 5526 5534 5545 5552 5547 5549 5560 5569 5580 5591 5596 5602 5593 5592 5599 5599 5597 5593 5589 5594 5593 5591 5596 5607 5610 5613 5599 5595 5590 5587 5586 5586 5585 5580 5573 5563 5549
5346 5362 5376 5394 5405 5415 5425 5436 5448 5460 5470 5478 5487 5493 5499 5507 5514 5522 5531 5540 5544 5537 5529 5542 5566 5570 5580 5587 5593 5597 5595 5594 5590 5582 5570 5564 5570 5594 5590 5593 5593 5599 5603 5599 5580 5578 5575 5575 5575 5572 5568 5560 5550 5539
5351 5363 5374 5390 5401 5411 5421 5433 5444 5456 5465 5474 5482 5489 5495 5502 5510 5520 5529 5534 5541 5540 5520 5536 5552 5560 5568 5575 5580 5584 5584 5582 5576 5568 5551 5561 5577 5586 5581 5580 5580 5593 5593 5582 5576 5585 5576 5571 5570 5564 5557 5549 5541 5531
5353 5364 5374 5385 5397 5407 5418 5428 5440 5451 5460 5469 5477 5483 5491 5498 5507 5515 5507 5525 5533 5539 5528 5516 5537 5550 5558 5562 5566 5568 5570 5568 5567 5564 5565 5569 5583 5580 5552 5570 5587 5592 5593 5593 5584 5581 5573 5565 5560 5557 5547 5538 5531 5523
5355 5364 5374 5383 5394 5405 5414 5425 5436 5446 5455 5464 5470 5478 5487 5493 5501 5502 5503 5518 5527 5534 5517 5509 5523 5541 5551 5552 5550 5551 5553 5552 5555 5549 5553 5561 5570 5570 5541 5545 5585 5591 5590 5585 5579 5571 5560 5557 5547 5539 5534 5526 5520 5512
5353 5363 5373 5381 5391 5401 5411 5421 5431 5440 5450 5458 5465 5473 5480 5488 5491 5494 5504 5515 5523 5520 5516 5500 5506 5529 5542 5535 5534 5538 5536 5535 5537 5541 5547 5555 5560 5557 5546 5575 5581 5586 5581 5572 5566 5565 5557 5540 5533 5525 5519 5514 5503 5495
5350 5363 5371 5380 5388 5398 5408 5417 5426 5435 5444 5451 5459 5468 5476 5478 5481 5486 5499 5507 5513 5509 5493 5496 5503 5504 5531 5530 5526 5527 5526 5512 5526 5518 5540 5545 5542 5538 5565 5573 5578 5576 5574 5557 5551 5548 5539 5530 5521 5515 5509 5500 5489 5475
5353 5363 5372 5379 5387 5395 5404 5414 5422 5429 5436 5444 5452 5453 5445 5467 5478 5485 5483 5480 5482 5489 5498 5496 5507 5512 5520 5521 5515 5514 5515 5504 5519 5524 5537 5521 5540 5558 5558 5564 5571 5563 5561 5553 5536 5526 5521 5517 5511 5505 5499 5488 5476 5465
5357 5364 5371 5378 5385 5393 5403 5411 5417 5421 5425 5435 5439 5443 5454 5464 5467 5459 5451 5460 5458 5473 5487 5499 5509 5509 5515 5509 5500 5513 5511 5503 5509 5533 5527 5524 5529 5546 5543 5541 5543 5544 5541 5540 5538 5530 5522 5516 5505 5493 5482 5472 5462 5452
5357 5366 5372 5377 5384 5392 5401 5407 5413 5420 5434 5445 5449 5449 5448 5447 5439 5442 5451 5457 5463 5487 5489 5498 5505 5508 5511 5511 5508 5496 5505 5503 5520 5518 5501 5510 5531 5529 5525 5521 5519 5520 5521 5518 5516 5510 5507 5500 5491 5481 5468 5456 5449 5442
5355 5363 5371 5378 5383 5392 5399 5405 5416 5431 5435 5437 5434 5433 5434 5431 5433 5447 5459 5459 5463 5484 5492 5499 5502 5503 5507 5501 5491 5485 5491 5494 5501 5492 5531 5515 5524 5518 5513 5507 5502 5501 5500 5498 5492 5487 5482 5475 5469 5463 5454 5445 5439 5430
5355 5361 5369 5378 5384 5390 5404 5407 5415 5418 5421 5415 5414 5429 5423 5438 5445 5460 5472 5476 5483 5491 5495 5496 5495 5500 5492 5492 5481 5497 5492 5493 5479 5481 5501 5510 5508 5501 5496 5491 5491 5484 5481 5480 5476 5472 5467 5462 5454 5446 5440 5435 5429 5420
5352 5357 5367 5372 5378 5384 5393 5403 5408 5417 5425 5425 5430 5415 5434 5449 5456 5464 5474 5481 5487 5494 5492 5491 5484 5488 5477 5483 5486 5500 5498 5492 5497 5502 5499 5493 5494 5488 5483 5480 5478 5472 5469 5467 5464 5460 5454 5449 5442 5435 5429 5424 5419 5412
5349 5352 5359 5366 5372 5380 5387 5397 5402 5411 5420 5429 5435 5432 5443 5445 5444 5456 5471 5476 5486 5486 5488 5491 5484 5482 5488 5484 5493 5498 5494 5501 5499 5493 5489 5490 5487 5483 5477 5474 5471 5466 5461 5458 5455 5451 5445 5438 5432 5426 5421 5415 5409 5405
5354 5354 5356 5359 5365 5373 5381 5385 5394 5395 5403 5422 5422 5440 5443 5447 5453 5460 5468 5474 5487 5485 5478 5482 5489 5495 5483 5478 5489 5495 5488 5489 5484 5483 5484 5481 5479 5476 5471 5465 5463 5459 5457 5452 5448 5442 5435 5428 5421 5417 5413 5406 5400 5396
5349 5351 5357 5363 5365 5368 5370 5375 5384 5393 5397 5409 5419 5425 5434 5440 5452 5456 5464 5472 5474 5474 5479 5483 5488 5493 5491 5494 5481 5475 5479 5479 5476 5471 5471 5473 5471 5468 5467 5462 5457 5455 5450 5444 5438 5432 5427 5420 5415 5410 5405 5398 5394 5391
5348 5351 5357 5362 5363 5361 5361 5369 5381 5390 5398 5408 5419 5422 5426 5433 5439 5447 5457 5466 5471 5474 5474 5472 5479 5461 5471 5476 5473 5465 5471 5467 5461 5461 5462 5463 5463 5460 5457 5453 5450 5447 5442 5437 5431 5425 5420 5415 5411 5405 5398 5394 5391 5387
5344 5349 5353 5361 5360 5360 5361 5368 5378 5391 5396 5397 5406 5408 5413 5421 5427 5436 5444 5450 5460 5460 5452 5453 5447 5464 5462 5467 5466 5464 5461 5457 5455 5449 5443 5446 5449 5448 5446 5444 5440 5439 5433 5430 5425 5418 5412 5407 5403 5398 5395 5392 5388 5383
5341 5341 5349 5353 5357 5360 5362 5367 5381 5390 5392 5391 5392 5399 5401 5406 5408 5412 5420 5431 5442 5441 5446 5435 5450 5451 5454 5457 5459 5457 5454 5454 5450 5450 5447 5437 5440 5440 5437 5434 5432 5425 5423 5420 5414 5407 5405 5401 5396 5394 5391 5386 5383 5379
5340 5346 5343 5344 5352 5363 5371 5375 5381 5382 5387 5391 5394 5397 5397 5399 5402 5407 5414 5420 5423 5433 5425 5435 5439 5438 5441 5445 5447 5448 5447 5442 5439 5435 5433 5432 5433 5430 5427 5424 5420 5416 5412 5407 5404 5401 5397 5393 5391 5389 5385 5381 5379 5376
5343 5345 5341 5344 5353 5361 5363 5373 5380 5384 5385 5386 5389 5394 5396 5399 5400 5410 5411 5418 5424 5414 5421 5428 5429 5432 5433 5437 5439 5437 5435 5432 5427 5425 5426 5425 5422 5420 5417 5414 5411 5407 5401 5397 5396 5392 5388 5384 5384 5382 5380 5377 5374 5370
5343 5342 5343 5345 5350 5353 5362 5363 5383 5386 5381 5385 5382 5391 5400 5394 5399 5395 5403 5405 5411 5413 5417 5420 5424 5423 5423 5424 5425 5426 5425 5425 5422 5419 5417 5414 5410 5406 5405 5401 5398 5396 5394 5390 5387 5383 5380 5378 5378 5376 5373 5370 5367 5364
5335 5328 5336 5342 5350 5345 5350 5374 5379 5384 5380 5389 5381 5371 5383 5384 5376 5393 5401 5409 5412 5414 5415 5415 5418 5420 5421 5418 5416 5415 5416 5417 5413 5408 5405 5404 5395 5391 5388 5387 5386 5385 5385 5382 5378 5376 5375 5374 5373 5370 5368 5365 5361 5357
5319 5327 5339 5342 5341 5352 5361 5349 5347 5356 5384 5380 5382 5378 5377 5387 5387 5386 5409 5412 5407 5411 5413 5412 5414 5414 5413 5413 5411 5409 5407 5406 5403 5398 5392 5390 5387 5384 5380 5379 5376 5373 5376 5377 5375 5373 5370 5368 5367 5365 5362 5359 5356 5353
5313 5320 5348 5353 5362 5367 5360 5365 5371 5368 5351 5357 5374 5370 5385 5384 5384 5403 5404 5404 5406 5407 5408 5409 5409 5409 5407 5404 5402 5401 5399 5397 5394 5390 5385 5381 5379 5377 5377 5377 5374 5372 5373 5374 5373 5369 5367 5365 5362 5359 5357 5353 5351 5347
5335 5345 5329 5348 5352 5364 5345 5355 5354 5358 5376 5380 5375 5362 5373 5380 5390 5393 5397 5399 5401 5402 5403 5402 5402 5400 5399 5395 5394 5392 5389 5385 5382 5378 5374 5370 5369 5369 5370 5371 5371 5370 5370 5369 5367 5365 5361 5358 5356 5353 5350 5347 5344 5340
5326 5342 5342 5325 5331 5349 5349 5354 5363 5369 5369 5378 5366 5365 5374 5377 5380 5383 5387 5391 5394 5397 5397 5395 5392 5389 5386 5384 5384 5382 5380 5379 5378 5374 5369 5364 5360 5360 5364 5366 5365 5365 5364 5363 5361 5359 5356 5354 5350 5346 5342 5339 5336 5332
5330 5341 5326 5312 5317 5335 5337 5350 5356 5357 5364 5363 5363 5364 5364 5369 5372 5376 5380 5385 5388 5389 5389 5387 5384 5383 5380 5378 5375 5371 5369 5373 5376 5375 5368 5363 5363 5362 5362 5363 5362 5360 5358 5356 5352 5350 5348 5343 5339 5336 5333 5329 5326 5323
5334 5337 5331 5327 5321 5331 5338 5342 5345 5350 5354 5356 5349 5348 5353 5356 5368 5372 5375 5379 5380 5381 5380 5378 5376 5375 5374 5372 5372 5369 5364 5365 5367 5367 5367 5364 5361 5359 5358 5359 5357 5355 5352 5349 5346 5343 5339 5334 5330 5327 5324 5320 5316 5312
5318 5319 5318 5315 5321 5320 5329 5330 5334 5336 5335 5336 5339 5334 5340 5354 5365 5368 5371 5374 5375 5376 5375 5373 5372 5370 5368 5366 5366 5366 5367 5362 5361 5362 5362 5361 5358 5356 5354 5352 5348 5347 5344 5341 5338 5334 5330 5326 5324 5320 5316 5312 5307 5302
5316 5309 5307 5307 5309 5316 5318 5325 5333 5331 5325 5331 5332 5334 5339 5345 5354 5368 5368 5369 5372 5373 5370 5368 5366 5364 5363 5362 5361 5360 5361 5360 5359 5359 5358 5357 5356 5353 5349 5345 5342 5339 5336 5332 5328 5325 5322 5319 5314 5310 5306 5301 5296 5289